"Pseudo-MPEC" for C0UTGF5

Created 2024 Nov 7 10:31:04 UT using Find_Orb

Click here for an explanation of pseudo-MPECs

 
 Astrometry: 
     C0UTGF5* C2024 10 28.33671601 55 19.618+17 46 15.60   ~AS92 23.62GVNEOCPV00
     C0UTGF5  C2024 10 28.34231501 55 21.706+17 46 24.96   ~AS92 22.86GVNEOCPV00
     C0UTGF5  C2024 10 28.34791801 55 23.826+17 46 34.93   ~AS92 23.18GVNEOCPV00
     C0UTGF5  C2024 10 28.35353301 55 25.914+17 46 44.87   ~AS92 21.66GVNEOCPV00
     C0UTGF5 KC2024 10 28.43139 01 55 55.54 +17 48 56.8    ~ASBV 23.3 GVNEOCP291
     C0UTGF5 KC2024 10 28.44388 01 56 00.30 +17 49 17.6    ~ASBV 22.9 GVNEOCP291
     C0UTGF5 KC2024 10 28.45637 01 56 05.16 +17 49 37.5    ~ASBV 23.6 GVNEOCP291

Station data:
(291) LPL/Spacewatch II  (N31.961669 W111.599905)  US/Arizona.  Observers J.
   V. Scotti, R. S. McMillan. 1.8-m f/2.7 reflector + CCD.
(V00) Kitt Peak-Bok  (N31.963125 W111.600190)  US/Arizona.  Observers T. A.
   Pruyne, B. M. Africano, E. J. Christensen, G. A. Farneth, D. C. Fuls, A.
   R. Gibbs, A. D. Grauer, H. Gröller, J. A. Johnson, R. A. Kowalski, S. M.
   Larson, G. J. Leonard, D. Rankin, R. L. Seaman, F. C. Shelly, K. W.
   Wierzchoś. 2.25-m reflector + 4x4K mosaic CCD.

Orbital elements:  C0UTGF5
   Perihelion 2024 Nov 13.84064 +/- 20.9 TT = 20:10:31 (JD 2460628.34064)
Epoch 2024 Oct 28.0 TT = JDT 2460611.5   Earth MOID: 0.0808   Ma: 0.0662
M 355.03944923 +/- 7                (J2000 ecliptic)             AutoNEOCP
n   0.29455837 +/- 0.143            Peri.  170.99358 +/- 110
a   2.23711579 +/- 0.726            Node   241.80618 +/- 54
e   0.5216668 +/- 0.143             Incl.    1.07319 +/- 0.59
P   3.34605                H 27.78  G  0.15   U 11.4  SR
q 1.07008662 +/- 0.11    Q 3.40414495 +/- 2.34
From 7 observations 2024 Oct. 28 (2.9 hr); mean residual 0".33
Residuals in arcseconds: 
241028 V00  .16-  .06+    241028 V00  .01+  .21+    241028 291  .41-  .49-    
241028 V00  .18-  .30-    241028 291  .83+  .27+    
241028 V00  .20+  .04-    241028 291  .28-  .30+    

Ephemerides (geocentric):
Date (UTC) HH   RA             Dec           delta  r     elong  mag " sig PA
---- --------  ------------   ------------  ------ ------ -----  --- --------
2024 11 07 11  03 19 04.597   +22 18 43.89  .08282 1.0728 171.1 23.1 238' 102
2024 11 07 12  03 19 28.190   +22 19 33.94  .08280 1.0728 171.1 23.1 240' 102
2024 11 07 13  03 19 51.795   +22 20 23.77  .08279 1.0727 171.0 23.1 241' 102
2024 11 07 14  03 20 15.413   +22 21 13.39  .08277 1.0727 171.0 23.1 242' 102
2024 11 07 15  03 20 39.043   +22 22 02.78  .08275 1.0727 170.9 23.1 244' 102
2024 11 07 16  03 21 02.684   +22 22 51.95  .08274 1.0726 170.9 23.1 245' 102
2024 11 07 17  03 21 26.338   +22 23 40.90  .08272 1.0726 170.9 23.1 247' 102
2024 11 07 18  03 21 50.002   +22 24 29.63  .08271 1.0726 170.8 23.1 248' 102
2024 11 07 19  03 22 13.678   +22 25 18.13  .08269 1.0725 170.8 23.1 249' 102
2024 11 07 20  03 22 37.364   +22 26 06.41  .08268 1.0725 170.7 23.1 251' 102
2024 11 07 21  03 23 01.062   +22 26 54.46  .08266 1.0725 170.7 23.1 252' 102
2024 11 07 22  03 23 24.770   +22 27 42.29  .08265 1.0724 170.6 23.1 254' 102
2024 11 07 23  03 23 48.489   +22 28 29.89  .08263 1.0724 170.6 23.1 255' 102
2024 11 08 00  03 24 12.218   +22 29 17.27  .08262 1.0724 170.6 23.1 257' 102
2024 11 08 01  03 24 35.957   +22 30 04.42  .08261 1.0723 170.5 23.1 258' 102
2024 11 08 02  03 24 59.706   +22 30 51.34  .08259 1.0723 170.5 23.1 259' 102
2024 11 08 03  03 25 23.464   +22 31 38.03  .08258 1.0723 170.4 23.1 261' 102
2024 11 08 04  03 25 47.232   +22 32 24.49  .08257 1.0722 170.4 23.1 262' 102
2024 11 08 05  03 26 11.009   +22 33 10.73  .08256 1.0722 170.4 23.1 264' 102
2024 11 08 06  03 26 34.795   +22 33 56.73  .08255 1.0722 170.3 23.1 265' 102
2024 11 08 07  03 26 58.590   +22 34 42.50  .08253 1.0722 170.3 23.1 267' 102
2024 11 08 08  03 27 22.394   +22 35 28.04  .08252 1.0721 170.2 23.1 268' 102
2024 11 08 09  03 27 46.206   +22 36 13.34  .08251 1.0721 170.2 23.1 269' 102
2024 11 08 10  03 28 10.027   +22 36 58.41  .08250 1.0721 170.1 23.1 271' 102
2024 11 08 11  03 28 33.856   +22 37 43.25  .08249 1.0720 170.1 23.1 272' 102
2024 11 08 12  03 28 57.692   +22 38 27.86  .08248 1.0720 170.1 23.1 274' 102
2024 11 08 13  03 29 21.536   +22 39 12.22  .08247 1.0720 170.0 23.1 275' 102
2024 11 08 14  03 29 45.388   +22 39 56.36  .08246 1.0719 170.0 23.1 277' 102
2024 11 08 15  03 30 09.247   +22 40 40.25  .08245 1.0719 169.9 23.1 278' 102
2024 11 08 16  03 30 33.113   +22 41 23.92  .08244 1.0719 169.9 23.1 279' 102
2024 11 08 17  03 30 56.985   +22 42 07.34  .08244 1.0719 169.8 23.1 281' 102
2024 11 08 18  03 31 20.865   +22 42 50.52  .08243 1.0718 169.8 23.1 282' 102
2024 11 08 19  03 31 44.751   +22 43 33.47  .08242 1.0718 169.8 23.1 284' 102
2024 11 08 20  03 32 08.643   +22 44 16.18  .08241 1.0718 169.7 23.1 285' 102
2024 11 08 21  03 32 32.541   +22 44 58.65  .08240 1.0717 169.7 23.1 287' 102
2024 11 08 22  03 32 56.445   +22 45 40.88  .08240 1.0717 169.6 23.1 288' 102
2024 11 08 23  03 33 20.355   +22 46 22.86  .08239 1.0717 169.6 23.1 289' 102
2024 11 09 00  03 33 44.270   +22 47 04.61  .08238 1.0717 169.5 23.1 291' 102
2024 11 09 01  03 34 08.191   +22 47 46.12  .08238 1.0716 169.5 23.1 292' 102
2024 11 09 02  03 34 32.116   +22 48 27.38  .08237 1.0716 169.4 23.1 294' 102
2024 11 09 03  03 34 56.046   +22 49 08.40  .08237 1.0716 169.4 23.2 295' 102
2024 11 09 04  03 35 19.981   +22 49 49.18  .08236 1.0715 169.4 23.2 297' 102
2024 11 09 05  03 35 43.921   +22 50 29.72  .08235 1.0715 169.3 23.2 298' 102
2024 11 09 06  03 36 07.864   +22 51 10.01  .08235 1.0715 169.3 23.2 300' 102
2024 11 09 07  03 36 31.812   +22 51 50.05  .08235 1.0715 169.2 23.2 301' 101
2024 11 09 08  03 36 55.763   +22 52 29.86  .08234 1.0714 169.2 23.2 302' 101
2024 11 09 09  03 37 19.718   +22 53 09.41  .08234 1.0714 169.1 23.2 304' 101
2024 11 09 10  03 37 43.676   +22 53 48.72  .08233 1.0714 169.1 23.2 305' 101